Location: Maccacari
(45.1333°N, 11.1333°E)
Time: 08:33:16
(UTC+00:00)

Cosmos 1269 Rocket - Pass Details

Date: 18 September 2020
Orbit: 772 x 779 km, 74.1° (Epoch: 30 October)

Event Time Altitude Azimuth Distance (km) Brightness Sun altitude
Rises 19:34:02 0° 343° (NNW) 3,272 7.9 -23.5°
Reaches altitude 10° 19:36:31 10° 349° (N) 2,341 7.0 -23.9°
Enters shadow 19:41:24 47° 54° (NE) 1,031 4.4 -24.6°
